Location: Arapaho Elementary School
(32.9607°N, 96.7625°W)
Time: 03:15:53
(UTC+00:00)

CZ-2C R/B - Pass Details

Date: 12 July 2022
Orbit: 783 x 871 km, 98.2° (Epoch: 14 August)

Event Time Altitude Azimuth Distance (km) Brightness Sun altitude
Rises 10:32:41 0° 154° (SSE) 3,424 5.8 -10.7°
Reaches altitude 10° 10:35:05 10° 150° (SSE) 2,498 5.1 -10.3°
Maximum altitude 10:40:30 55° 74° (ENE) 1,042 3.6 -9.4°
Drops below altitude 10° 10:45:58 10° 358° (N) 2,521 5.6 -8.4°
Sets 10:48:24 0° 354° (N) 3,459 6.3 -8.0°
